Simultaneous Nadir Overpasses (SNOs) Predictions

Prediction of SNOs near equator between NOAA-19 and NPP Satellite Orbit:

Table of predicted SNOs near equator for the next 14.0 days since TLE Epoch: 2/15/2013
Index Date (NOAA-19) Time (NOAA-19) NOAA-19 Lat,Lon Date (NPP) Time (NPP) NPP Lat,Lon Distance(km) Time Diff (sec)
1 02/23/2013 11:00:03 29.96, 33.82 02/23/2013 10:51:57 29.74, 32.85 96.37 486
2 02/23/2013 11:51:02 -29.98,-158.93 02/23/2013 11:42:39 -29.77,-159.83 89.58 503
3 02/23/2013 12:42:08 29.98, 8.30 02/23/2013 12:33:28 29.80, 7.46 82.75 520
4 02/23/2013 13:33:07 -29.99, 175.55 02/23/2013 13:24:10 -29.83, 174.78 75.96 537
5 02/23/2013 14:24:13 29.99, -17.23 02/23/2013 14:14:59 29.86, -17.93 69.17 554
6 02/23/2013 15:15:11 -29.95, 150.04 02/23/2013 15:05:40 -29.83, 149.41 62.46 571
7 02/23/2013 16:06:1
